Resultados de RENTAL PROVA 2 - 18:30
KARTODROMO INTERNACIONAL GRANJA VIANA KGV RACE TRACKS CIRCUITO - 105
Resultados de RENTAL - PROVA 2 - 18:30


Pos No. Nome Classe Comentários Voltas Pontos Total Tempo Melhor Tempo na volta. Diff Espaço Melhor Veloc.
1 008 SAVIOLO FERNANDO RENTAL 20 0 15:25.241 43.784 11 60,022
2 015 VALDEMIR SOUZA RENTAL 20 0 15:30.688 43.773 4 5.447 5.447 60,037
3 019 JOSUEL HORA ROSALINO RENTAL 20 0 15:42.091 44.162 12 16.850 11.403 59,508
4 035 EDUARDO NASCIMENTO LEITE RENTAL 20 0 15:43.427 44.272 15 18.186 1.336 59,360
5 016 HENRIQUE AUGUSTO ARAUJO RENTAL 20 0 15:54.429 43.785 4 29.188 11.002 60,021
6 006 FERNANDO ARAUJO SANTOS RENTAL 20 0 15:58.402 44.235 10 33.161 3.973 59,410
7 017 MILTON VIEIRA RED KILLER RENTAL 20 0 16:02.507 44.517 13 37.266 4.105 59,034
8 028 RODRIGO BATISTA RED KILLER RENTAL 20 0 16:04.589 45.135 10 39.348 2.082 58,225
9 001 FABIO VINICIUS DIAS DA SILVA RENTAL 20 0 16:04.963 44.792 20 39.722 0.374 58,671
10 038 BRUNO BATISTA RED KILLER RENTAL 20 0 16:09.531 44.662 16 44.290 4.568 58,842
11 021 ARTHUR MARTINS RENTAL 20 0 16:09.567 44.952 12 44.326 0.036 58,462
Não completou 032 LEONARDO MOREIRA RENTAL 19 0 15:08.449 44.871 4 Não completou 1 Volta 58,568
13 004 ALLAN SANTOS DE ANDRADE RENTAL 19 0 15:26.557 45.038 16 1 Volta 18.108 58,351
14 018 GLAUBER AVLES DA CRUZ RENTAL 19 0 15:48.808 45.852 5 1 Volta 22.251 57,315
15 003 WILLY AUGUSTO FERREIRO RENTAL 19 0 16:06.195 44.246 16 1 Volta 17.387 59,395
16 033 CRISTIAN PETICOV RENTAL 19 0 16:06.325 43.910 1 1 Volta 0.130 59,850
17 030 DOUGLAS MARQUES RENTAL 18 0 15:39.648 47.700 15 2 Voltas 1 Volta 55,094
18 039 DIEGO FERNANDES BOLDRIN RENTAL 18 0 15:42.825 47.331 3 2 Voltas 3.177 55,524
19 007 WALISSON SANTOS ALVES RENTAL 14 0 15:41.717 58.777 7 6 Voltas 4 Voltas 44,711
20 020 EDUARDO BOLDRIN DINIZ RENTAL 12 0 15:50.586 1:05.729 6 8 Voltas 2 Voltas 39,982
Gerada em 12/08/2019 19:01